• In Hungary
  • List of Countries
  • For 7 days
  • Water Temperature
  • Satellite Maps
  • Weather Map
  • News
  • Weather Widgets
  • user-avatar
    Login

    Hourly Weather Don

    Today, 22 May, Tuesday

    Time Temperature Precipitation Wind Pressure Humidity
    00:00 +10°C° 0 mm 2 mps 754 mmHg 60%
    01:00 +10°C° 0 mm 3 mps 753 mmHg 58%
    02:00 +10°C° 0 mm 3 mps 753 mmHg 59%
    03:00 +11°C° 0 mm 4 mps 753 mmHg 60%
    04:00 +12°C° 0 mm 4 mps 752 mmHg 59%
    05:00 +13°C° 0 mm 5 mps 752 mmHg 57%
    06:00 +15°C° 0 mm 5 mps 752 mmHg 55%
    07:00 +16°C° 0 mm 5 mps 752 mmHg 53%
    08:00 +17°C° 0 mm 5 mps 753 mmHg 49%
    09:00 +19°C° 0 mm 5 mps 753 mmHg 46%
    10:00 +19°C° 0 mm 6 mps 754 mmHg 41%
    11:00 +20°C° 0 mm 6 mps 754 mmHg 36%
    12:00 +20°C° 0 mm 6 mps 755 mmHg 31%
    13:00 +20°C° 0 mm 6 mps 755 mmHg 26%
    14:00 +20°C° 0 mm 5 mps 755 mmHg 24%
    15:00 +20°C° 0 mm 5 mps 756 mmHg 22%
    16:00 +19°C° 0 mm 5 mps 756 mmHg 20%
    17:00 +19°C° 0 mm 4 mps 756 mmHg 22%
    18:00 +18°C° 0 mm 3 mps 757 mmHg 24%
    19:00 +17°C° 0 mm 2 mps 757 mmHg 27%
    20:00 +15°C° 0 mm 2 mps 757 mmHg 32%
    21:00 +13°C° 0 mm 1 mps 757 mmHg 38%
    22:00 +10°C° 0 mm 1 mps 758 mmHg 43%
    23:00 +10°C° 0 mm 1 mps 758 mmHg 45%

    Tomorrow, 23 May, Wednesday

    Time Temperature Precipitation Wind Pressure Humidity
    00:00 +9°C° 0 mm 1 mps 758 mmHg 47%
    01:00 +8°C° 0 mm 1 mps 758 mmHg 48%
    02:00 +8°C° 0 mm 1 mps 758 mmHg 50%
    03:00 +8°C° 0 mm 1 mps 758 mmHg 51%
    04:00 +7°C° 0 mm 2 mps 758 mmHg 52%
    05:00 +8°C° 0 mm 2 mps 757 mmHg 48%
    06:00 +10°C° 0 mm 3 mps 756 mmHg 44%
    07:00 +11°C° 0 mm 3 mps 756 mmHg 40%
    08:00 +13°C° 0 mm 3 mps 755 mmHg 40%
    09:00 +14°C° 0 mm 4 mps 754 mmHg 40%
    10:00 +15°C° 0 mm 4 mps 753 mmHg 40%
    11:00 +15°C° 0.5 mm 4 mps 752 mmHg 52%
    12:00 +17°C° 0.5 mm 4 mps 752 mmHg 63%
    13:00 +17°C° 0.5 mm 4 mps 751 mmHg 74%
    14:00 +17°C° 0.2 mm 4 mps 751 mmHg 73%
    15:00 +16°C° 0.2 mm 5 mps 750 mmHg 73%
    16:00 +16°C° 0.2 mm 5 mps 749 mmHg 72%
    17:00 +18°C° 0.1 mm 4 mps 749 mmHg 70%
    18:00 +18°C° 0.1 mm 4 mps 748 mmHg 67%
    19:00 +19°C° 0.1 mm 3 mps 747 mmHg 65%
    20:00 +18°C° 0.3 mm 3 mps 747 mmHg 72%
    21:00 +17°C° 0.3 mm 3 mps 746 mmHg 80%
    22:00 +14°C° 0.3 mm 3 mps 746 mmHg 87%
    23:00 +14°C° 0.7 mm 3 mps 746 mmHg 89%

    Day after tomorrow, 24 May, Thursday

    Time Temperature Precipitation Wind Pressure Humidity
    00:00 +13°C° 0.7 mm 3 mps 745 mmHg 91%
    01:00 +14°C° 0.7 mm 2 mps 745 mmHg 94%
    02:00 +12°C° 0.3 mm 3 mps 746 mmHg 93%
    03:00 +11°C° 0.3 mm 3 mps 746 mmHg 92%
    04:00 +11°C° 0.3 mm 3 mps 747 mmHg 92%
    05:00 +8°C° 0.2 mm 4 mps 747 mmHg 89%
    06:00 +7°C° 0.2 mm 4 mps 748 mmHg 87%
    07:00 +5°C° 0.2 mm 4 mps 749 mmHg 84%
    08:00 +6°C° 0.1 mm 4 mps 749 mmHg 76%
    09:00 +7°C° 0.1 mm 4 mps 750 mmHg 68%
    10:00 +8°C° 0.1 mm 4 mps 751 mmHg 60%
    11:00 +10°C° 0 mm 4 mps 751 mmHg 52%
    12:00 +11°C° 0 mm 4 mps 751 mmHg 45%
    13:00 +12°C° 0 mm 4 mps 752 mmHg 37%
    14:00 +12°C° 0 mm 4 mps 752 mmHg 37%
    15:00 +12°C° 0 mm 4 mps 752 mmHg 38%
    16:00 +11°C° 0 mm 4 mps 752 mmHg 38%
    17:00 +11°C° 0 mm 4 mps 752 mmHg 39%
    18:00 +10°C° 0 mm 4 mps 752 mmHg 41%
    19:00 +8°C° 0 mm 4 mps 753 mmHg 42%
    20:00 +8°C° 0 mm 3 mps 753 mmHg 47%
    21:00 +7°C° 0 mm 2 mps 753 mmHg 51%
    22:00 +6°C° 0 mm 2 mps 753 mmHg 55%
    23:00 +5°C° 0 mm 2 mps 753 mmHg 60%

    25 May, Friday

    Time Temperature Precipitation Wind Pressure Humidity
    00:00 +5°C° 0 mm 2 mps 753 mmHg 64%
    01:00 +4°C° 0 mm 2 mps 754 mmHg 68%
    02:00 +4°C° 0.1 mm 2 mps 754 mmHg 70%
    03:00 +3°C° 0.1 mm 2 mps 754 mmHg 72%
    04:00 +2°C° 0.1 mm 3 mps 754 mmHg 73%
    05:00 +2°C° 0 mm 3 mps 754 mmHg 67%
    06:00 +2°C° 0 mm 3 mps 754 mmHg 61%
    07:00 +3°C° 0 mm 4 mps 755 mmHg 55%
    08:00 +3°C° 0 mm 4 mps 755 mmHg 52%
    09:00 +4°C° 0 mm 4 mps 755 mmHg 49%
    10:00 +4°C° 0 mm 4 mps 755 mmHg 46%
    11:00 +5°C° 0 mm 4 mps 755 mmHg 43%
    12:00 +5°C° 0 mm 5 mps 755 mmHg 41%
    13:00 +6°C° 0 mm 5 mps 755 mmHg 38%
    14:00 +7°C° 0 mm 5 mps 756 mmHg 36%
    15:00 +7°C° 0 mm 5 mps 756 mmHg 35%
    16:00 +8°C° 0 mm 5 mps 756 mmHg 33%
    17:00 +7°C° 0 mm 4 mps 756 mmHg 34%
    18:00 +7°C° 0 mm 4 mps 756 mmHg 36%
    19:00 +7°C° 0 mm 4 mps 756 mmHg 38%
    20:00 +5°C° 0 mm 3 mps 756 mmHg 45%
    21:00 +5°C° 0 mm 2 mps 756 mmHg 52%
    22:00 +4°C° 0 mm 1 mps 757 mmHg 60%
    23:00 +4°C° 0 mm 1 mps 756 mmHg 63%

    26 May, Saturday

    Time Temperature Precipitation Wind Pressure Humidity
    00:00 +2°C° 0 mm 2 mps 756 mmHg 66%
    01:00 +2°C° 0 mm 2 mps 756 mmHg 69%
    02:00 +2°C° 0.1 mm 2 mps 756 mmHg 73%
    03:00 +3°C° 0.1 mm 2 mps 756 mmHg 77%
    04:00 +3°C° 0.1 mm 2 mps 756 mmHg 81%
    05:00 +3°C° 0 mm 3 mps 756 mmHg 77%
    06:00 +5°C° 0 mm 3 mps 756 mmHg 74%
    07:00 +7°C° 0 mm 3 mps 756 mmHg 71%
    08:00 +8°C° 0 mm 3 mps 756 mmHg 64%
    09:00 +10°C° 0 mm 3 mps 756 mmHg 57%
    10:00 +11°C° 0 mm 4 mps 756 mmHg 50%
    11:00 +11°C° 0 mm 4 mps 756 mmHg 49%
    12:00 +11°C° 0 mm 3 mps 756 mmHg 48%
    13:00 +12°C° 0 mm 3 mps 756 mmHg 47%
    14:00 +12°C° 0 mm 3 mps 755 mmHg 45%
    15:00 +13°C° 0 mm 3 mps 755 mmHg 43%
    16:00 +14°C° 0 mm 3 mps 755 mmHg 41%
    17:00 +14°C° 0 mm 3 mps 755 mmHg 41%
    18:00 +15°C° 0 mm 2 mps 754 mmHg 42%
    19:00 +15°C° 0 mm 2 mps 754 mmHg 42%
    20:00 +13°C° 0 mm 2 mps 754 mmHg 49%
    21:00 +11°C° 0 mm 1 mps 754 mmHg 57%
    22:00 +9°C° 0 mm 1 mps 753 mmHg 64%
    23:00 +8°C° 0 mm 2 mps 753 mmHg 66%

    27 May, Sunday

    Time Temperature Precipitation Wind Pressure Humidity
    00:00 +7°C° 0 mm 2 mps 752 mmHg 68%
    01:00 +7°C° 0 mm 2 mps 751 mmHg 70%
    02:00 +8°C° 0 mm 3 mps 750 mmHg 67%
    03:00 +8°C° 0 mm 3 mps 749 mmHg 63%
    04:00 +8°C° 0 mm 4 mps 748 mmHg 60%
    05:00 +10°C° 0.3 mm 4 mps 748 mmHg 65%
    06:00 +10°C° 0.3 mm 3 mps 747 mmHg 69%
    07:00 +11°C° 0.3 mm 3 mps 746 mmHg 74%
    08:00 +10°C° 0.5 mm 3 mps 746 mmHg 76%
    09:00 +10°C° 0.5 mm 4 mps 746 mmHg 78%
    10:00 +8°C° 0.5 mm 4 mps 746 mmHg 79%
    11:00 +10°C° 0.1 mm 4 mps 746 mmHg 66%
    12:00 +12°C° 0.1 mm 5 mps 747 mmHg 52%
    13:00 +13°C° 0.1 mm 5 mps 747 mmHg 39%
    14:00 +13°C° 0.1 mm 5 mps 747 mmHg 38%
    15:00 +13°C° 0.1 mm 6 mps 748 mmHg 37%
    16:00 +13°C° 0.1 mm 6 mps 748 mmHg 36%
    17:00 +11°C° 0 mm 6 mps 748 mmHg 38%
    18:00 +10°C° 0 mm 5 mps 748 mmHg 39%
    19:00 +9°C° 0 mm 5 mps 748 mmHg 40%
    20:00 +8°C° 0 mm 4 mps 749 mmHg 47%
    21:00 +7°C° 0 mm 3 mps 749 mmHg 53%
    22:00 +5°C° 0 mm 3 mps 750 mmHg 59%
    23:00 +4°C° 0 mm 3 mps 750 mmHg 62%
    Show more